Simultaneous Nadir Overpasses (SNOs) Predictions

Prediction of SNOs between METOP-B and NPP Satellite Orbit:

Table of predicted SNOs for the next 14.0 days since TLE Epoch: 4/14/2023
Index Date (METOP-B) Time (METOP-B) Lat,Lon (METOP-B) SZA (METOP-B ) Date (NPP) Time (NPP) Lat,Lon (NPP) SZA (NPP ) Distance(km) Time Diff (sec)
1 04/28/2023 01:26:02 73.58, 152.01 59.56 04/28/2023 01:24:54 73.60, 149.49 59.70 79.26 68
2 04/28/2023 02:16:45 -73.52, -40.78 120.50 04/28/2023 02:15:36 -73.49, -42.94 120.44 68.19 69
3 04/28/2023 03:07:29 73.31, 126.06 59.29 04/28/2023 03:06:18 73.31, 124.78 59.36 40.92 71
4 04/28/2023 03:58:13 -73.20, -66.84 120.82 04/28/2023 03:57:00 -73.20, -67.67 120.78 26.46 73



Historial Predications of SNOs between METOP-B and NPP
